Location: Bush Observatory
(40.2653°N, 94.3194°W)
Time: 11:02:30
(UTC-05:00)

FO-29 - Visible Passes

Search period start: 29 June 2017 00:00
Search period end: 09 July 2017 00:00
Orbit: 801 x 1321 km, 98.6° (Epoch: 28 June)

Date Brightness Start Highest point End Pass type
(mag) Time Alt. Az. Time Alt. Az. Time Alt. Az.
29 Jun 11.8 00:45:57 10° N 00:52:04 26° WNW 00:58:08 10° WSW visible
29 Jun 10.9 22:05:42 10° NNE 22:12:32 32° E 22:17:17 17° SE visible
29 Jun 10.6 23:50:07 10° N 23:57:46 56° WNW 00:03:46 17° SW visible
30 Jun 12.4 01:38:31 10° NNW 01:41:06 12° NW 01:43:40 10° WNW visible
30 Jun 10.1 22:55:04 10° NNE 23:02:58 69° E 23:08:02 23° S visible
01 Jul 11.7 00:40:59 10° N 00:47:16 27° WNW 00:53:26 10° WSW visible
01 Jul 10.9 22:00:57 10° NE 22:07:37 29° E 22:12:19 16° SE visible
01 Jul 10.5 23:45:13 10° N 23:52:56 59° WNW 23:58:48 18° SW visible
02 Jul 12.4 01:33:16 10° NNW 01:36:18 13° NW 01:39:20 10° WNW visible
02 Jul 10.1 22:50:14 10° NNE 22:58:06 65° E 23:03:04 23° S visible
03 Jul 11.6 00:36:01 10° N 00:42:27 29° WNW 00:48:42 10° WSW visible
03 Jul 11.0 21:56:12 10° NE 22:02:41 27° E 22:07:19 16° SE visible
03 Jul 10.4 23:40:20 10° N 23:48:06 63° WNW 23:53:48 18° SW visible
04 Jul 12.3 01:28:07 10° NNW 01:31:30 13° NW 01:34:53 10° WNW visible
04 Jul 10.1 22:45:25 10° NNE 22:53:12 61° E 22:58:03 23° S visible
05 Jul 11.6 00:31:05 10° N 00:37:38 30° WNW 00:43:56 10° WSW visible
05 Jul 11.1 21:51:30 10° NE 21:57:44 26° E 22:02:18 15° SE visible
05 Jul 10.3 23:35:28 10° N 23:43:15 66° WNW 23:48:47 19° SSW visible
06 Jul 12.3 01:23:00 10° NNW 01:26:43 14° NW 01:30:23 10° W visible
06 Jul 10.2 22:40:36 10° NNE 22:48:19 57° E 22:53:01 23° S visible
07 Jul 11.5 00:26:09 10° N 00:32:49 32° WNW 00:39:09 10° WSW visible
07 Jul 11.1 21:46:49 10° NE 21:52:46 24° E 21:57:16 14° SE visible
07 Jul 10.2 23:30:36 10° N 23:38:24 70° WNW 23:43:44 20° SSW visible
08 Jul 12.3 01:17:56 10° NNW 01:21:55 15° NW 01:25:49 10° W visible
08 Jul 10.2 22:35:48 10° NNE 22:43:24 53° E 22:47:58 23° SSE visible
